Location: Dumbr?vi?a
(45.8833°N, 22.7000°E)
Time: 14:14:54
(UTC+00:00)

ARGOS - Pass Details

Date: 03 March 2021
Orbit: 819 x 835 km, 98.4° (Epoch: 16 April)

Event Time Altitude Azimuth Distance (km) Brightness Sun altitude
Rises 17:48:14 0° 177° (S) 3,365 6.2 -16.4°
Reaches altitude 10° 17:50:38 10° 182° (S) 2,437 5.5 -16.8°
Maximum altitude 17:55:56 55° 260° (W) 997 3.9 -17.7°
Drops below altitude 10° 18:01:17 10° 338° (NNW) 2,458 6.0 -18.6°
Sets 18:03:43 0° 343° (NNW) 3,396 6.7 -19.0°
